Flag for Germany Past Weather in Buchholz in der Nordheide, Lower Saxony, Germany — Yesterday and Last 2 Weeks

Now
70 °F

Scattered clouds.


Feels Like: 70 °F
Forecast: 54 / 68 °F
Wind: 13 mph from West

Location: Hamburg-Fuhlsbuettel

Current Time: Jul 30, 2016 at 6:52:23 PM

Latest Report: Jul 30, 2016 at 6:20 PM


Visibility: N/A

Pressure: 29.89 "Hg

Humidity: 57%

Dew Point: 54 °F

Location of Buchholz in der NordheideLocation

Past Weather in Buchholz in der Nordheide — Graph

°F

Buchholz in der Nordheide Temperature Yesterday

Maximum temperature yesterday: 73 °F (at 2:50 PM)
Minimum temperature yesterday: 63 °F (at 2:50 AM)
Average temperature yesterday: 67 °F

High & Low Weather Summary for the Past Weeks

 TemperatureHumidityPressure
High84 °F (Jul 21, 3:50 PM)100% (Jul 16, 1:50 AM)30.21 "Hg (Jul 16, 1:50 AM)
Low52 °F (Jul 15, 11:50 PM)42% (Jul 23, 2:20 PM)29.80 "Hg (Jul 29, 3:50 PM)
Average68 °F77%30.03 "Hg
* Reported Jul 15 5:20 PM — Jul 30 5:20 PM, Buchholz in der Nordheide, Weather by CustomWeather, © 2016

Note: Actual official high and low records may vary slightly from our data, if they occured in-between our weather recording intervals... More about our weather records

Advertising

Buchholz in der Nordheide Weather History for the Previous 24 Hours

Scroll right to see more
 ConditionsComfort  
Time TempWeatherWind HumidityBarometerVisibility
5:20 PM
Sat, Jul 30
70 °FScattered clouds.14 mph60%29.86 "HgN/A
4:50 PM70 °FScattered clouds.15 mph64%29.86 "HgN/A
4:20 PM70 °FScattered clouds.14 mph64%29.86 "HgN/A
3:50 PM70 °FScattered clouds.14 mph64%29.86 "HgN/A
3:20 PM68 °FSprinkles. Broken clouds.13 mph78%29.83 "HgN/A
2:50 PM66 °FSprinkles. Broken clouds.12 mph78%29.86 "HgN/A
2:20 PM68 °FScattered showers. Broken clouds.12 mph73%29.83 "HgN/A
1:50 PM68 °FScattered showers. Broken clouds.10 mph78%29.83 "HgN/A
1:20 PM70 °FScattered showers. Broken clouds.13 mph73%29.83 "HgN/A
12:50 PM68 °FPartly sunny.12 mph78%29.83 "HgN/A
12:20 PM66 °FScattered showers. Broken clouds.10 mph83%29.83 "HgN/A
11:50 AM66 °FScattered showers. Broken clouds.15 mph83%29.83 "HgN/A
11:20 AM66 °FSprinkles. Broken clouds.14 mph83%29.83 "HgN/A
10:50 AM68 °FBroken clouds.12 mph78%29.83 "HgN/A
10:20 AM66 °FBroken clouds.10 mph83%29.83 "HgN/A
9:50 AM66 °FPartly sunny.12 mph88%29.83 "HgN/A
9:20 AM64 °FPartly sunny.9 mph88%29.83 "HgN/A
8:50 AM63 °FPartly sunny.9 mph94%29.83 "HgN/A
8:20 AM63 °FBroken clouds.9 mph94%29.83 "HgN/A
7:50 AM63 °FSprinkles. Partly sunny.8 mph94%29.83 "HgN/A
7:20 AM63 °FSprinkles. Partly sunny.7 mph94%29.80 "HgN/A
6:50 AM63 °FBroken clouds.7 mph94%29.83 "HgN/A
6:20 AM63 °FPassing clouds.6 mph94%29.80 "HgN/A
5:50 AM61 °FPassing clouds.7 mph100%29.80 "HgN/A
5:20 AM61 °FPassing clouds.6 mph100%29.80 "HgN/A
4:50 AM61 °FPassing clouds.7 mph94%29.80 "HgN/A
4:20 AM61 °FClear.6 mph94%29.80 "Hg10 mi
3:50 AM61 °FPassing clouds.5 mph100%29.80 "HgN/A
3:20 AM63 °FClear.5 mph94%29.83 "Hg10 mi
2:50 AM63 °FPassing clouds.7 mph94%29.83 "HgN/A
2:20 AM63 °FSprinkles. Passing clouds.9 mph94%29.83 "HgN/A
1:50 AM63 °FSprinkles. Passing clouds.8 mph94%29.83 "HgN/A
1:20 AM61 °FScattered showers. Passing clouds.7 mph100%29.83 "HgN/A
12:50 AM61 °FClear.7 mph100%29.83 "Hg10 mi
12:20 AM63 °FClear.6 mph94%29.83 "Hg10 mi
11:50 PM
Fri, Jul 29
63 °FClear.7 mph100%29.83 "Hg10 mi
11:20 PM63 °FClear.3 mph94%29.83 "Hg10 mi
10:50 PM63 °FPassing clouds.7 mph100%29.83 "HgN/A
10:20 PM63 °FSprinkles. Passing clouds.3 mph100%29.83 "HgN/A
9:50 PM63 °FRain showers. Partly sunny.5 mph94%29.83 "Hg4 mi
9:20 PM63 °FSprinkles. Partly sunny.5 mph100%29.83 "HgN/A
8:50 PM63 °FSprinkles. Broken clouds.6 mph94%29.80 "HgN/A
8:20 PM63 °FSprinkles. Broken clouds.9 mph94%29.80 "HgN/A
7:50 PM66 °FSprinkles. Broken clouds.16 mph78%29.80 "HgN/A
7:20 PM72 °FScattered showers. Broken clouds.12 mph65%29.80 "HgN/A
6:50 PM72 °FPartly sunny.10 mph65%29.80 "HgN/A
6:20 PM72 °FPartly sunny.10 mph65%29.80 "HgN/A
Weather by CustomWeather, © 2016

See weather overviewHow to use our weather pages